Regional Weather Roundup
Issued by NWS

Home | Current Version | Previous Version | Text Only | Print | Product List | Glossary Off
Versions: 1 2 3 4 5 6 7 8 9 10 11 12 13 14 15 16 17 18 19 20 21 22 23 24 25 26 27 28 29 30 31 32 33 34 35 36 37 38 39 40 41 42 43 44 45 46 47 48 49 50

545
ASUS44 KJAN 311603
RWRMS

MISSISSIPPI HOURLY WEATHER ROUNDUP
NATIONAL WEATHER SERVICE JACKSON MS
1100 AM CDT TUE MAR 31 2015

NOTE: "FAIR: INDICATES FEW OR NO CLOUDS BELOW 12,000 FEET WITH NO
SIGNIFICANT WEATHER AND/OR OBSTRUCTIONS TO VISIBILITY.

MSZ001>002-007>008-010>013-018>021-025>028-034>036-311700-
NORTHWEST MISSISSIPPI

CITY           SKY/WX    TMP DP  RH WIND       PRES   REMARKS
CLARKSDALE       N/A     68  64  88 SW5       30.04F
CLEVELAND      FAIR      73  65  75 SW17      30.04S
GREENWOOD      PTSUNNY   73  61  65 W8        30.06S
GREENVILLE     MOSUNNY   71  62  73 SW14      30.04
OXFORD         PTSUNNY   64  57  77 SW6       30.07R
TUNICA         PTSUNNY   64  59  82 SW7       30.04S
$$

MSZ003>006-009-014>017-022>024-029>033-037>039-311700-
NORTHEAST MISSISSIPPI

CITY           SKY/WX    TMP DP  RH WIND       PRES   REMARKS
COLUMBUS AFB   CLOUDY    69  59  70 W5        30.06R
CORINTH        PTSUNNY   70  57  64 SW9       30.02S
GOLDN TRIANGLE SUNNY     70  61  73 SW5       30.06S
STARKVILLE     PTSUNNY   70  61  73 SW3       30.07R
TUPELO         PTSUNNY   69  57  65 CALM      30.05R
$$

MSZ040-058-311700-
CENTRAL MISSISSIPPI

CITY           SKY/WX    TMP DP  RH WIND       PRES   REMARKS
JACKSON INTL   PTSUNNY   72  60  66 SW10      30.12R
JACKSON HAWKNS PTSUNNY   70  60  70 W14G21    30.12R
MERIDIAN KEY   MOSUNNY   72  58  61 W9        30.10F
MERIDIAN NAS   PTSUNNY   73  59  61 SW10      30.09F
RAYMOND        PTSUNNY   68  64  88 W9        30.12R
VICKSBURG      CLOUDY    70  60  70 SW9       30.11S
$$

MSZ059>079-311700-
SOUTH MISSISSIPPI

CITY           SKY/WX    TMP DP  RH WIND       PRES   REMARKS
BROOKHAVEN     CLOUDY    70  63  78 SW10G17   30.15S
HATTIESBURG    MOSUNNY   76  60  57 SW15G25   30.14S
MCCOMB         PTSUNNY   72  61  68 SW9       30.13S
NATCHEZ        PTSUNNY   70  61  73 SW8       30.13S
PINE BELT      CLOUDY    73  61  64 W8G17     30.15F
$$

MSZ080>082-311700-
COASTAL MISSISSIPPI

CITY           SKY/WX    TMP DP  RH WIND       PRES   REMARKS
BILOXI         MOSUNNY   75  66  74 SW10      30.15R
PASCAGOULA     PTSUNNY   77  63  61 SW9G17    30.15S
GULFPORT       PTSUNNY   75  63  66 SW7       30.14S
$$



USA.gov is the U.S. government's official web portal to all federal, state and local government web resources and services.